Location: Newark
(29.9790°N, 31.1340°E)
Time: 13:41:33
(UTC+00:00)

Transit 2A Rocket - Pass Details

Date: 21 January 2020
Orbit: 591 x 912 km, 66.7° (Epoch: 24 February)

Event Time Altitude Azimuth Distance (km) Brightness Sun altitude
Rises 14:00:47 0° 326° (NNW) 3,093 8.1 14.8°
Reaches altitude 10° 14:03:07 10° 320° (NW) 2,221 7.5 14.3°
Maximum altitude 14:07:57 45° 249° (WSW) 1,043 6.9 13.5°
Drops below altitude 10° 14:13:13 10° 177° (S) 2,415 8.1 12.5°
Sets 14:15:51 0° 172° (S) 3,392 8.7 12.0°
